Time,TemperatureF,DewpointF,PressureIn,WindDirection,WindDirectionDegrees,WindSpeedMPH,WindSpeedGustMPH,Humidity,HourlyPrecipIn,Conditions,Clouds,dailyrainin,SoftwareType,DateUTC
2013-01-17 00:01:00,17.0,16.0,30.57,NW,306,0.0,1.0,97,0.00,,,0.06,,2013-01-17 08:01:00,
2013-01-17 00:12:00,17.0,16.0,30.57,NW,306,0.0,1.0,97,0.00,,,0.06,,2013-01-17 08:12:00,
2013-01-17 00:22:00,16.0,15.0,30.57,NW,307,0.0,1.0,97,0.00,,,0.06,,2013-01-17 08:22:00,
2013-01-17 00:32:00,15.0,14.0,30.57,NNE,26,1.0,3.0,96,0.00,,,0.06,,2013-01-17 08:32:00,
2013-01-17 00:43:00,15.0,14.0,30.57,NNE,26,1.0,3.0,96,0.00,,,0.06,,2013-01-17 08:43:00,
2013-01-17 00:52:00,16.0,16.0,30.57,North,358,0.0,1.0,98,0.00,,,0.06,,2013-01-17 08:52:00,
2013-01-17 01:02:00,16.0,15.0,30.58,North,1,0.0,2.0,96,0.00,,,0.06,,2013-01-17 09:02:00,
2013-01-17 01:12:00,16.0,15.0,30.58,North,1,0.0,2.0,96,0.00,,,0.06,,2013-01-17 09:12:00,
2013-01-17 01:22:00,17.0,17.0,30.58,North,354,0.0,0.0,99,0.00,,,0.06,,2013-01-17 09:22:00,
2013-01-17 01:32:00,18.0,18.0,30.58,WNW,300,0.0,1.0,99,0.00,,,0.06,,2013-01-17 09:32:00,
2013-01-17 01:42:00,18.0,18.0,30.58,WNW,300,0.0,1.0,99,0.00,,,0.06,,2013-01-17 09:42:00,
2013-01-17 01:52:00,14.0,13.0,30.58,WNW,300,0.0,1.0,95,0.00,,,0.06,,2013-01-17 09:52:00,
2013-01-17 02:02:00,12.0,11.0,30.58,WNW,301,0.0,1.0,96,0.00,,,0.06,,2013-01-17 10:02:00,
2013-01-17 02:11:00,12.0,11.0,30.58,WNW,301,0.0,1.0,96,0.00,,,0.06,,2013-01-17 10:11:00,
2013-01-17 02:22:00,13.0,12.0,30.58,WNW,301,0.0,0.0,97,0.00,,,0.06,,2013-01-17 10:22:00,
2013-01-17 02:32:00,14.0,13.0,30.59,North,6,0.0,2.0,97,0.00,,,0.06,,2013-01-17 10:32:00,
2013-01-17 02:42:00,14.0,13.0,30.59,North,6,0.0,2.0,97,0.00,,,0.06,,2013-01-17 10:42:00,
2013-01-17 02:52:00,14.0,13.0,30.59,North,6,0.0,1.0,96,0.00,,,0.06,,2013-01-17 10:52:00,
2013-01-17 03:02:00,14.0,13.0,30.59,North,6,0.0,1.0,96,0.00,,,0.06,,2013-01-17 11:02:00,
2013-01-17 03:11:00,14.0,13.0,30.59,North,6,0.0,1.0,96,0.00,,,0.06,,2013-01-17 11:11:00,
2013-01-17 03:22:00,14.0,13.0,30.58,North,6,0.0,0.0,97,0.00,,,0.06,,2013-01-17 11:22:00,
2013-01-17 03:32:00,14.0,13.0,30.59,North,11,0.0,2.0,96,0.00,,,0.06,,2013-01-17 11:32:00,
2013-01-17 03:42:00,14.0,13.0,30.59,North,11,0.0,2.0,96,0.00,,,0.06,,2013-01-17 11:42:00,
2013-01-17 03:53:00,13.0,12.0,30.58,North,358,0.0,2.0,96,0.00,,,0.06,,2013-01-17 11:53:00,
2013-01-17 04:02:00,13.0,12.0,30.58,North,357,0.0,1.0,96,0.00,,,0.06,,2013-01-17 12:02:00,
2013-01-17 04:12:00,13.0,12.0,30.58,North,357,0.0,1.0,96,0.00,,,0.06,,2013-01-17 12:12:00,
2013-01-17 04:22:00,16.0,16.0,30.59,North,357,0.0,1.0,98,0.00,,,0.06,,2013-01-17 12:22:00,
2013-01-17 04:32:00,15.0,14.0,30.59,North,357,0.0,1.0,96,0.00,,,0.06,,2013-01-17 12:32:00,
2013-01-17 04:42:00,15.0,14.0,30.59,North,357,0.0,1.0,96,0.00,,,0.06,,2013-01-17 12:42:00,
2013-01-17 04:53:00,15.0,14.0,30.58,NNW,331,0.0,2.0,97,0.00,,,0.06,,2013-01-17 12:53:00,
2013-01-17 05:02:00,16.0,15.0,30.58,NNW,331,0.0,1.0,97,0.00,,,0.06,,2013-01-17 13:02:00,
2013-01-17 05:12:00,16.0,15.0,30.58,NNW,331,0.0,1.0,97,0.00,,,0.06,,2013-01-17 13:12:00,
2013-01-17 05:22:00,16.0,15.0,30.58,NNW,331,0.0,1.0,97,0.00,,,0.06,,2013-01-17 13:22:00,
2013-01-17 05:33:00,17.0,16.0,30.58,NNW,331,0.0,1.0,97,0.00,,,0.06,,2013-01-17 13:33:00,
2013-01-17 05:42:00,17.0,16.0,30.58,NNW,331,0.0,1.0,97,0.00,,,0.06,,2013-01-17 13:42:00,
2013-01-17 05:53:00,16.0,15.0,30.58,NW,304,0.0,1.0,96,0.00,,,0.06,,2013-01-17 13:53:00,
2013-01-17 06:02:00,16.0,15.0,30.58,WNW,303,0.0,0.0,97,0.00,,,0.06,,2013-01-17 14:02:00,
2013-01-17 06:12:00,16.0,15.0,30.58,WNW,303,0.0,0.0,97,0.00,,,0.06,,2013-01-17 14:12:00,
2013-01-17 06:23:00,17.0,16.0,30.58,NW,305,0.0,1.0,97,0.00,,,0.06,,2013-01-17 14:23:00,
2013-01-17 06:32:00,18.0,18.0,30.58,NW,306,0.0,1.0,98,0.00,,,0.06,,2013-01-17 14:32:00,
2013-01-17 06:42:00,18.0,18.0,30.58,NW,306,0.0,1.0,98,0.00,,,0.06,,2013-01-17 14:42:00,
2013-01-17 06:53:00,18.0,17.0,30.58,North,2,1.0,1.0,97,0.00,,,0.06,,2013-01-17 14:53:00,
2013-01-17 07:02:00,18.0,18.0,30.58,North,8,0.0,2.0,98,0.00,,,0.06,,2013-01-17 15:02:00,
2013-01-17 07:12:00,18.0,18.0,30.58,North,8,0.0,2.0,98,0.00,,,0.06,,2013-01-17 15:12:00,
2013-01-17 07:22:00,18.0,18.0,30.59,North,359,0.0,1.0,98,0.00,,,0.06,,2013-01-17 15:22:00,
2013-01-17 07:32:00,18.0,18.0,30.59,North,359,0.0,1.0,98,0.00,,,0.06,,2013-01-17 15:32:00,
2013-01-17 07:42:00,18.0,18.0,30.59,North,359,0.0,1.0,98,0.00,,,0.06,,2013-01-17 15:42:00,
2013-01-17 07:53:00,18.0,17.0,30.59,NNW,333,0.0,0.0,97,0.00,,,0.06,,2013-01-17 15:53:00,
2013-01-17 08:02:00,18.0,17.0,30.60,NNW,333,0.0,0.0,97,0.00,,,0.06,,2013-01-17 16:02:00,
2013-01-17 08:12:00,18.0,17.0,30.60,NNW,333,0.0,0.0,97,0.00,,,0.06,,2013-01-17 16:12:00,
2013-01-17 08:22:00,18.0,17.0,30.60,NNW,333,0.0,1.0,97,0.00,,,0.06,,2013-01-17 16:22:00,
2013-01-17 08:33:00,17.0,16.0,30.60,WNW,292,0.0,1.0,97,0.00,,,0.06,,2013-01-17 16:33:00,
2013-01-17 08:43:00,17.0,16.0,30.60,WNW,292,0.0,1.0,97,0.00,,,0.06,,2013-01-17 16:43:00,
2013-01-17 08:53:00,17.0,16.0,30.60,SW,236,1.0,2.0,97,0.00,,,0.06,,2013-01-17 16:53:00,
2013-01-17 09:02:00,18.0,17.0,30.61,WSW,252,0.0,1.0,97,0.00,,,0.06,,2013-01-17 17:02:00,
2013-01-17 09:12:00,18.0,17.0,30.61,WSW,252,0.0,1.0,97,0.00,,,0.06,,2013-01-17 17:12:00,
2013-01-17 09:22:00,18.0,17.0,30.61,WSW,252,0.0,0.0,97,0.00,,,0.06,,2013-01-17 17:22:00,
2013-01-17 09:32:00,18.0,17.0,30.61,NE,44,1.0,2.0,97,0.00,,,0.06,,2013-01-17 17:32:00,
2013-01-17 09:42:00,18.0,17.0,30.61,NE,44,1.0,2.0,97,0.00,,,0.06,,2013-01-17 17:42:00,
2013-01-17 09:53:00,18.0,17.0,30.61,NE,50,2.0,2.0,97,0.00,,,0.06,,2013-01-17 17:53:00,
2013-01-17 10:02:00,18.0,17.0,30.61,NE,50,1.0,2.0,97,0.00,,,0.06,,2013-01-17 18:02:00,
2013-01-17 10:12:00,18.0,17.0,30.61,NE,50,1.0,2.0,97,0.00,,,0.06,,2013-01-17 18:12:00,
2013-01-17 10:22:00,18.0,17.0,30.61,NNE,28,1.0,2.0,97,0.00,,,0.06,,2013-01-17 18:22:00,
2013-01-17 10:33:00,18.0,17.0,30.61,NNE,28,1.0,2.0,97,0.00,,,0.06,,2013-01-17 18:33:00,
2013-01-17 10:43:00,18.0,17.0,30.61,NNE,28,1.0,2.0,97,0.00,,,0.06,,2013-01-17 18:43:00,
2013-01-17 10:53:00,18.0,17.0,30.61,NE,49,1.0,2.0,97,0.00,,,0.06,,2013-01-17 18:53:00,
2013-01-17 11:02:00,18.0,17.0,30.60,NE,56,0.0,2.0,97,0.00,,,0.06,,2013-01-17 19:02:00,
2013-01-17 11:12:00,18.0,17.0,30.60,NE,56,0.0,2.0,97,0.00,,,0.06,,2013-01-17 19:12:00,
2013-01-17 11:22:00,18.0,17.0,30.59,ENE,59,1.0,3.0,97,0.00,,,0.06,,2013-01-17 19:22:00,
2013-01-17 11:32:00,18.0,17.0,30.58,NE,56,1.0,2.0,97,0.00,,,0.06,,2013-01-17 19:32:00,
2013-01-17 11:42:00,18.0,17.0,30.58,NE,56,1.0,2.0,97,0.00,,,0.06,,2013-01-17 19:42:00,
2013-01-17 11:53:00,19.0,18.0,30.58,NE,51,1.0,3.0,97,0.00,,,0.06,,2013-01-17 19:53:00,
2013-01-17 12:02:00,19.0,18.0,30.57,NE,50,0.0,1.0,97,0.00,,,0.06,,2013-01-17 20:02:00,
2013-01-17 12:12:00,19.0,18.0,30.57,NE,50,0.0,1.0,97,0.00,,,0.06,,2013-01-17 20:12:00,
2013-01-17 12:22:00,22.0,22.0,30.56,NE,51,0.0,1.0,99,0.00,,,0.06,,2013-01-17 20:22:00,
2013-01-17 12:32:00,22.0,21.0,30.55,SSW,211,0.0,2.0,96,0.00,,,0.05,,2013-01-17 20:32:00,
2013-01-17 12:43:00,22.0,21.0,30.55,SSW,211,0.0,2.0,96,0.00,,,0.05,,2013-01-17 20:43:00,
2013-01-17 12:53:00,21.0,20.0,30.55,NE,39,1.0,2.0,96,0.00,,,0.05,,2013-01-17 20:53:00,
2013-01-17 13:02:00,20.0,19.0,30.55,NE,40,2.0,3.0,97,0.00,,,0.05,,2013-01-17 21:02:00,
2013-01-17 13:12:00,20.0,19.0,30.55,NE,40,2.0,3.0,97,0.00,,,0.05,,2013-01-17 21:12:00,
2013-01-17 13:22:00,20.0,19.0,30.54,NNE,23,1.0,2.0,97,0.00,,,0.05,,2013-01-17 21:22:00,
2013-01-17 13:33:00,20.0,19.0,30.54,NNE,30,1.0,2.0,97,0.00,,,0.03,,2013-01-17 21:33:00,
2013-01-17 13:42:00,20.0,19.0,30.54,NNE,30,1.0,2.0,97,0.00,,,0.03,,2013-01-17 21:42:00,
2013-01-17 13:53:00,22.0,22.0,30.52,NNE,30,0.0,2.0,99,0.00,,,0.03,,2013-01-17 21:53:00,
2013-01-17 14:02:00,26.0,26.0,30.52,ENE,60,0.0,1.0,100,0.00,,,0.03,,2013-01-17 22:02:00,
2013-01-17 14:12:00,26.0,26.0,30.52,ENE,60,0.0,1.0,100,0.00,,,0.03,,2013-01-17 22:12:00,
2013-01-17 14:22:00,22.0,21.0,30.52,NNE,23,1.0,3.0,95,0.00,,,0.03,,2013-01-17 22:22:00,
2013-01-17 14:32:00,21.0,20.0,30.51,NNE,25,0.0,2.0,97,0.00,,,0.01,,2013-01-17 22:32:00,
2013-01-17 14:42:00,21.0,20.0,30.51,NNE,25,0.0,2.0,97,0.00,,,0.01,,2013-01-17 22:42:00,
2013-01-17 14:52:00,24.0,24.0,30.51,NW,307,0.0,1.0,99,0.00,,,0.01,,2013-01-17 22:52:00,
2013-01-17 15:02:00,22.0,21.0,30.52,NE,42,2.0,3.0,97,0.00,,,0.01,,2013-01-17 23:02:00,
2013-01-17 15:12:00,22.0,21.0,30.52,NE,42,2.0,3.0,97,0.00,,,0.01,,2013-01-17 23:12:00,
2013-01-17 15:22:00,22.0,22.0,30.51,NNE,13,0.0,2.0,98,0.00,,,0.01,,2013-01-17 23:22:00,
2013-01-17 15:32:00,22.0,22.0,30.51,NNE,13,0.0,2.0,98,0.00,,,0.01,,2013-01-17 23:32:00,
2013-01-17 15:42:00,22.0,22.0,30.51,NNE,13,0.0,2.0,98,0.00,,,0.01,,2013-01-17 23:42:00,
2013-01-17 15:53:00,19.0,18.0,30.50,West,274,0.0,2.0,96,0.00,,,0.00,,2013-01-17 23:53:00,
2013-01-17 16:02:00,19.0,18.0,30.50,West,274,0.0,2.0,96,0.00,,,0.00,,2013-01-18 00:02:00,
2013-01-17 16:12:00,19.0,18.0,30.50,West,274,0.0,2.0,96,0.00,,,0.00,,2013-01-18 00:12:00,
2013-01-17 16:22:00,19.0,19.0,30.49,West,274,0.0,1.0,98,0.00,,,0.00,,2013-01-18 00:22:00,
2013-01-17 16:32:00,19.0,19.0,30.49,West,274,0.0,1.0,98,0.00,,,0.00,,2013-01-18 00:32:00,
2013-01-17 16:43:00,19.0,18.0,30.50,North,355,1.0,2.0,97,0.00,,,0.00,,2013-01-18 00:43:00,
2013-01-17 16:52:00,19.0,19.0,30.50,NNE,26,0.0,3.0,98,0.00,,,0.00,,2013-01-18 00:52:00,
2013-01-17 17:02:00,19.0,19.0,30.50,NNW,344,0.0,0.0,98,0.00,,,0.00,,2013-01-18 01:02:00,
2013-01-17 17:12:00,19.0,19.0,30.50,NNW,344,0.0,0.0,98,0.00,,,0.00,,2013-01-18 01:12:00,
2013-01-17 17:22:00,18.0,18.0,30.50,NNW,339,0.0,1.0,98,0.00,,,0.00,,2013-01-18 01:22:00,
2013-01-17 17:32:00,18.0,18.0,30.51,NW,324,0.0,1.0,98,0.00,,,0.00,,2013-01-18 01:32:00,
2013-01-17 17:42:00,18.0,18.0,30.51,NW,324,0.0,1.0,98,0.00,,,0.00,,2013-01-18 01:42:00,
2013-01-17 17:52:00,18.0,17.0,30.50,NW,315,0.0,1.0,97,0.00,,,0.00,,2013-01-18 01:52:00,
2013-01-17 18:02:00,18.0,18.0,30.50,NW,310,1.0,1.0,98,0.00,,,0.00,,2013-01-18 02:02:00,
2013-01-17 18:12:00,18.0,18.0,30.50,NW,310,1.0,1.0,98,0.00,,,0.00,,2013-01-18 02:12:00,
2013-01-17 18:22:00,18.0,18.0,30.49,NW,305,0.0,1.0,98,0.00,,,0.00,,2013-01-18 02:22:00,
2013-01-17 18:32:00,18.0,18.0,30.48,West,276,1.0,2.0,98,0.00,,,0.00,,2013-01-18 02:32:00,
2013-01-17 18:42:00,18.0,18.0,30.48,West,276,1.0,2.0,98,0.00,,,0.00,,2013-01-18 02:42:00,
2013-01-17 18:53:00,18.0,18.0,30.48,WSW,257,1.0,2.0,98,0.00,,,0.00,,2013-01-18 02:53:00,
2013-01-17 19:02:00,18.0,18.0,30.46,WSW,246,2.0,2.0,98,0.00,,,0.00,,2013-01-18 03:02:00,
2013-01-17 19:12:00,18.0,18.0,30.46,WSW,246,2.0,2.0,98,0.00,,,0.00,,2013-01-18 03:12:00,
2013-01-17 19:22:00,17.0,17.0,30.46,WSW,255,0.0,2.0,98,0.00,,,0.00,,2013-01-18 03:22:00,
2013-01-17 19:32:00,17.0,16.0,30.46,NE,43,0.0,3.0,97,0.00,,,0.00,,2013-01-18 03:32:00,
2013-01-17 19:42:00,17.0,16.0,30.46,NE,43,0.0,3.0,97,0.00,,,0.00,,2013-01-18 03:42:00,
2013-01-17 19:52:00,17.0,17.0,30.46,WNW,298,0.0,1.0,98,0.00,,,0.00,,2013-01-18 03:52:00,
2013-01-17 20:02:00,17.0,17.0,30.46,WNW,298,0.0,1.0,98,0.00,,,0.00,,2013-01-18 04:02:00,
2013-01-17 20:12:00,17.0,17.0,30.46,WNW,298,0.0,1.0,98,0.00,,,0.00,,2013-01-18 04:12:00,
2013-01-17 20:22:00,17.0,17.0,30.46,WNW,298,0.0,1.0,98,0.00,,,0.00,,2013-01-18 04:22:00,
2013-01-17 20:32:00,18.0,18.0,30.47,NNW,338,1.0,3.0,98,0.00,,,0.00,,2013-01-18 04:32:00,
2013-01-17 20:42:00,18.0,18.0,30.47,NNW,338,1.0,3.0,98,0.00,,,0.00,,2013-01-18 04:42:00,
2013-01-17 20:53:00,18.0,18.0,30.47,NNW,347,1.0,3.0,98,0.00,,,0.00,,2013-01-18 04:53:00,
2013-01-17 21:03:00,18.0,18.0,30.47,North,1,0.0,2.0,98,0.00,,,0.00,,2013-01-18 05:03:00,
2013-01-17 21:12:00,18.0,18.0,30.47,North,1,0.0,2.0,98,0.00,,,0.00,,2013-01-18 05:12:00,
2013-01-17 21:22:00,17.0,17.0,30.46,NW,311,0.0,1.0,98,0.00,,,0.00,,2013-01-18 05:22:00,
2013-01-17 21:32:00,18.0,18.0,30.46,NNW,341,0.0,1.0,98,0.00,,,0.00,,2013-01-18 05:32:00,
2013-01-17 21:42:00,18.0,18.0,30.46,NNW,341,0.0,1.0,98,0.00,,,0.00,,2013-01-18 05:42:00,
2013-01-17 21:53:00,17.0,17.0,30.45,WSW,251,0.0,3.0,98,0.00,,,0.00,,2013-01-18 05:53:00,
2013-01-17 22:02:00,17.0,16.0,30.45,WSW,252,0.0,2.0,97,0.00,,,0.00,,2013-01-18 06:02:00,
2013-01-17 22:12:00,17.0,16.0,30.45,WSW,252,0.0,2.0,97,0.00,,,0.00,,2013-01-18 06:12:00,
2013-01-17 22:22:00,17.0,17.0,30.45,NNE,33,1.0,2.0,98,0.00,,,0.00,,2013-01-18 06:22:00,
2013-01-17 22:32:00,17.0,16.0,30.44,NNE,33,0.0,1.0,97,0.00,,,0.00,,2013-01-18 06:32:00,
2013-01-17 22:42:00,17.0,16.0,30.44,NNE,33,0.0,1.0,97,0.00,,,0.00,,2013-01-18 06:42:00,
2013-01-17 22:52:00,17.0,16.0,30.45,NNE,33,0.0,1.0,97,0.00,,,0.00,,2013-01-18 06:52:00,
2013-01-17 23:02:00,17.0,16.0,30.45,NNE,15,0.0,1.0,97,0.00,,,0.00,,2013-01-18 07:02:00,
2013-01-17 23:12:00,17.0,16.0,30.45,NNE,15,0.0,1.0,97,0.00,,,0.00,,2013-01-18 07:12:00,
2013-01-17 23:22:00,17.0,16.0,30.45,NNE,15,0.0,0.0,97,0.00,,,0.00,,2013-01-18 07:22:00,
2013-01-17 23:32:00,17.0,17.0,30.45,NNW,327,0.0,2.0,98,0.00,,,0.00,,2013-01-18 07:32:00,
2013-01-17 23:42:00,17.0,17.0,30.45,NNW,327,0.0,2.0,98,0.00,,,0.00,,2013-01-18 07:42:00,
2013-01-17 23:52:00,17.0,16.0,30.44,NNW,331,0.0,1.0,97,0.00,,,0.00,,2013-01-18 07:52:00,